CAPE
0 3 3 2 1 1 3 4 4 1 0 0 5 5 1 2 0 0 0 0 0 0 0 0 0 0 0 0 0 0 0 31 71 72 337 275 70 16 2 21 55 226 510 739 1136
0 1 2 1 0 2 3 1 0 2 0 0 4 3 0 0 0 0 0 4 0 28 0 0 0 0 0 0 0 27 8 25 188 48 100 395 65 26 5 0 140 632 1276 1260 1122
0 0 0 0 0 1 3 0 0 0 1 3 4 0 0 0 0 0 20 23 0 11 0 0 0 0 0 0 0 35 1 3 244 43 81 0 0 13 56 4 70 144 1109 1464 1345
0 0 0 0 0 1 0 0 0 1 2 2 3 0 0 0 2 0 111 146 38 0 0 0 0 0 0 0 0 4 0 0 2 149 20 6 20 66 45 42 198 552 1331 1226 1096
0 0 0 0 0 0 0 0 0 0 0 0 0 0 0 0 0 62 244 310 0 0 0 1 0 0 0 0 0 0 0 0 36 0 0 15 42 139 46 63 89 1214 1116 1094 972
0 0 0 0 0 0 1 0 0 0 0 0 0 0 19 0 0 1 41 18 0 0 4 0 0 0 0 0 0 0 5 0 6 8 16 26 112 143 137 177 591 939 830 486 312
0 0 0 0 0 0 0 0 0 0 0 0 0 0 0 0 0 59 60 21 44 28 17 11 0 1 0 18 0 0 3 0 4 67 72 79 115 82 194 218 490 470 311 118 0
0 0 0 0 0 0 0 0 0 0 0 0 0 0 1 0 0 6 53 90 69 47 17 20 10 0 4 0 0 0 0 0 0 60 53 10 53 38 190 258 255 215 67 0 0
0 0 0 0 0 0 0 0 0 0 0 0 0 1 11 0 0 15 61 64 45 29 19 0 0 3 1 0 0 0 0 0 0 36 43 32 0 36 193 306 351 237 143 24 1
0 0 0 0 0 0 0 0 0 0 0 0 0 30 111 0 0 40 19 7 87 86 38 26 31 60 1 0 1 0 0 7 30 13 14 0 5 84 231 256 423 380 264 172 148
0 0 0 0 0 0 0 0 0 0 0 0 0 0 1 0 0 4 0 0 105 103 68 77 33 0 0 2 0 0 0 12 10 0 1 4 10 58 197 236 339 472 450 383 408
0 0 0 0 0 0 0 0 0 0 27 0 0 0 0 0 11 5 0 6 58 25 16 78 44 32 1 3 0 0 13 1 0 0 29 13 46 46 242 291 286 373 491 545 522
0 0 0 0 0 0 0 0 0 0 195 0 0 0 0 0 39 32 0 15 45 26 10 46 54 46 11 9 32 25 9 13 56 20 1 93 135 177 166 298 380 409 424 494 575
0 0 0 0 0 0 0 0 0 0 104 0 0 0 0 13 27 4 4 16 49 0 4 59 44 93 2 31 48 73 79 58 61 92 59 80 73 79 211 264 328 440 559 604 786
0 0 0 0 0 0 0 0 0 214 61 0 0 0 0 1 3 0 0 1 25 39 16 72 113 80 91 160 83 30 72 103 91 65 14 103 61 118 284 200 242 397 529 737 899
0 0 0 0 0 0 0 324 158 300 34 0 0 0 0 0 0 0 0 0 35 20 64 5 144 180 189 104 86 147 157 155 125 104 213 116 149 90 265 224 232 288 471 696 581
0 0 0 0 0 0 0 531 174 53 0 0 0 0 0 0 0 0 0 4 24 15 114 142 162 147 149 170 167 165 199 333 220 168 177 158 110 45 84 92 131 296 427 525 383
0 0 0 0 0 47 224 362 41 0 0 0 0 0 0 0 0 0 1 0 0 70 103 130 193 118 111 224 225 197 156 151 38 85 103 145 1 221 127 74 70 287 402 452 280
0 1 8 0 0 21 108 214 34 0 0 0 0 0 0 0 0 0 10 32 45 55 11 210 65 52 32 73 81 197 56 154 122 207 22 0 80 188 55 51 36 317 391 381 132
0 20 0 0 0 74 108 30 17 2 0 0 0 0 0 0 0 0 5 43 91 75 158 138 155 47 0 29 46 72 93 63 24 0 0 15 0 98 6 0 0 245 403 338 75
3 39 49 3 11 90 53 57 19 3 0 0 0 0 0 0 0 0 2 78 65 102 207 94 75 124 0 1 29 111 38 4 14 4 3 0 22 0 0 0 0 99 326 274 71
21 74 141 308 0 32 62 24 6 8 53 0 0 0 0 1 6 0 0 34 55 85 52 92 93 79 71 0 0 9 12 18 0 0 0 16 0 0 0 0 0 6 143 143 64
20 212 456 230 5 180 50 31 22 4 28 22 0 0 0 4 11 0 0 54 6 89 43 129 0 8 55 23 4 0 0 0 0 0 0 356 0 0 0 0 0 0 3 40 45
169 253 238 261 1 117 74 56 35 10 59 37 0 0 0 0 4 19 6 6 0 7 0 4 0 3 76 62 48 54 0 0 0 2 0 0 0 0 0 0 0 0 0 0 4
158 115 18 119 57 167 114 36 9 15 40 94 63 14 28 9 20 77 129 23 0 0 0 33 50 6 0 0 0 0 0 0 0 0 22 0 0 0 0 0 0 0 0 0 0
212 158 95 73 19 264 193 85 9 13 120 147 66 3 98 142 169 132 217 140 78 19 70 4 38 0 0 0 0 0 0 0 0 0 0 0 0 0 0 0 0 0 0 0 0
86 446 284 165 331 332 268 62 18 78 351 290 151 78 256 285 436 389 230 149 141 202 176 116 35 0 0 0 0 0 0 0 0 0 0 0 0 0 0 0 0 0 0 0 0
CIN
-0 -0 -0 -0 -1 -1 -0 -0 -0 -0 -0 -0 -0 -0 -0 -0 -0 -0 -0 -0 -0 -0 -0 -0 -0 -0 -0 -0 -0 -0 -0 -0 -1 -17 -139 -1 -35 -1 -11 -49 -4 -13 -0 -7 -10
-0 -0 -0 -0 -0 -0 -0 -0 -0 -0 -0 -0 -0 -0 -0 -0 -0 -0 -0 -293 -0 -716 -0 -0 -0 -0 -0 -0 -0 -21 -7 -2 -125 -48 -0 -2 -21 -1 -21 -0 -2 -1 -0 -42 -18
-0 -0 -0 -0 -0 -0 -1 -0 -0 -0 -0 -0 -0 -0 -0 -0 -0 -0 -643 -695 -0 -197 -0 -0 -0 -0 -0 -0 -0 -7 -2 -12 -93 -42 -4 -0 -0 -25 -6 -4 -0 -6 -4 -2 -0
-0 -0 -0 -0 -0 -0 -0 -0 -0 -0 -0 -0 -0 -0 -0 -0 -45 -19 -646 -676 -783 -0 -0 -0 -0 -0 -0 -0 -1 -2 -0 -0 -1 -1 -11 -4 -15 -3 -2 -5 -3 -1 -0 -0 -0
-0 -0 -0 -0 -0 -0 -0 -0 -0 -0 -0 -0 -0 -0 -0 -0 -0 -228 -542 -609 -0 -0 -0 -94 -0 -0 -0 -0 -0 -0 -0 -0 -0 -0 -0 -20 -8 -128 -18 -21 -14 -0 -0 -0 -0
-0 -0 -0 -0 -0 -0 -0 -0 -0 -0 -0 -0 -0 -0 -249 -0 -0 -98 -172 -220 -69 -0 -158 -0 -0 -0 -0 -0 -0 -0 -0 -0 -13 -5 -4 -4 -21 -15 -23 -19 -0 -1 -0 -1 -0
-0 -0 -0 -0 -0 -0 -0 -0 -0 -0 -0 -0 -0 -0 -0 -0 -0 -136 -157 -159 -122 -109 -86 -88 -104 -16 -0 -2 -0 -0 -6 -0 -5 -1 -3 -2 -0 -4 -17 -22 -14 -4 -0 -16 -0
-0 -0 -0 -0 -0 -0 -0 -0 -0 -0 -0 -0 -0 -0 -62 -0 -0 -182 -108 -76 -75 -85 -95 -77 -79 -0 -29 -0 -0 -0 -0 -0 -13 -6 -9 -16 -2 -15 -26 -15 -14 -16 -24 -0 -0
-0 -0 -0 -0 -0 -0 -0 -0 -0 -0 -0 -0 -57 -320 -180 -0 -0 -131 -66 -61 -51 -98 -103 -0 -0 -45 -22 -0 -0 -0 -0 -1 -1 -10 -2 -0 -2 -30 -18 -6 -3 -19 -27 -41 -3
-0 -0 -0 -0 -0 -0 -0 -0 -0 -0 -0 -0 -0 -170 -129 -0 -0 -93 -103 -70 -39 -62 -82 -59 -33 -12 -1 -0 -1 -0 -1 -2 -0 -2 -0 -0 -1 -18 -15 -11 -0 -6 -25 -34 -56
-0 -0 -0 -0 -0 -0 -0 -0 -0 -0 -0 -0 -0 -0 -15 -0 -0 -78 -0 -9 -15 -20 -4 -11 -6 -0 -0 -0 -0 -0 -0 -1 -1 -0 -0 -0 -1 -13 -20 -18 -2 -1 -10 -14 -25
-0 -0 -0 -0 -0 -0 -0 -0 -0 -0 -90 -0 -0 -0 -0 -0 -25 -67 -15 -15 -1 -37 -47 -1 -15 -2 -13 -1 -0 -0 -13 -3 -0 -0 -17 -2 -0 -9 -14 -14 -5 -8 -15 -12 -12
-0 -0 -0 -0 -0 -0 -0 -0 -0 -0 -17 -0 -0 -0 -0 -9 -46 -7 -30 -10 -8 -4 -4 -43 -3 -21 -5 -13 -0 -1 -3 -5 -1 -18 -2 -0 -0 -10 -28 -14 -17 -12 -0 -4 -15
-0 -0 -0 -0 -0 -0 -0 -0 -0 -0 -6 -0 -0 -0 -0 -118 -45 -28 -40 -7 -6 -15 -11 -8 -22 -3 -4 -2 -5 -3 -9 -1 -3 -0 -0 -3 -1 -1 -25 -46 -68 -59 -38 -10 -3
-0 -0 -0 -0 -0 -0 -0 -0 -0 -20 -0 -0 -0 -0 -0 -78 -43 -0 -0 -2 -12 -0 -5 -5 -0 -2 -1 -3 -15 -0 -18 -2 -0 -0 -3 -0 -0 -27 -5 -29 -57 -60 -66 -22 -10
-0 -0 -0 -0 -0 -0 -0 -12 -4 -1 -3 -0 -0 -0 -0 -0 -0 -0 -0 -0 -4 -8 -0 -49 -15 -4 -2 -24 -19 -27 -11 -3 -1 -0 -0 -0 -0 -0 -0 -0 -12 -69 -52 -20 -40
-0 -0 -0 -0 -0 -0 -0 -1 -10 -0 -0 -0 -0 -0 -0 -0 -0 -0 -0 -28 -4 -1 -0 -0 -0 -20 -15 -4 -15 -7 -0 -0 -0 -0 -0 -8 -4 -0 -5 -53 -12 -51 -35 -25 -42
-0 -0 -0 -0 -0 -23 -15 -5 -0 -0 -0 -0 -0 -0 -0 -0 -0 -0 -18 -0 -0 -2 -1 -1 -0 -7 -12 -2 -1 -1 -0 -0 -0 -0 -0 -17 -3 -2 -35 -114 -109 -57 -34 -29 -56
-0 -0 -0 -0 -0 -46 -42 -24 -56 -0 -0 -0 -0 -0 -0 -0 -0 -0 -32 -1 -0 -9 -5 -1 -5 -37 -33 -22 -10 -0 -8 -6 -5 -58 -34 -0 -0 -40 -95 -130 -150 -52 -33 -33 -100
-0 -0 -0 -0 -0 -28 -55 -74 -0 -0 -0 -0 -0 -0 -0 -0 -0 -0 -18 -0 -0 -19 -10 -2 -0 -19 -2 -35 -42 -20 -16 -11 -15 -0 -0 -0 -0 -0 -81 -0 -0 -65 -38 -50 -122
-0 -10 -24 -3 -11 -0 -0 -121 -0 -1 -0 -0 -0 -0 -0 -0 -0 -0 -0 -8 -14 -21 -14 -0 -0 -9 -1 -6 -0 -11 -20 -21 -2 -1 -8 -0 -0 -0 -0 -0 -0 -91 -42 -52 -107
-2 -0 -23 -3 -0 -0 -132 -0 -2 -0 -26 -0 -0 -0 -0 -1 -10 -0 -0 -0 -31 -10 -1 -1 -0 -0 -0 -0 -2 -19 -19 -13 -0 -0 -0 -51 -0 -0 -0 -0 -0 -122 -75 -61 -91
-1 -14 -12 -38 -0 -43 -96 -9 -0 -0 -0 -9 -0 -0 -0 -19 -23 -0 -0 -72 -30 -26 -1 -7 -0 -1 -0 -28 -9 -0 -0 -0 -0 -0 -0 -0 -16 -0 -0 -0 -0 -0 -28 -90 -71
-2 -35 -35 -34 -0 -38 -30 -55 -0 -0 -3 -0 -0 -0 -0 -0 -30 -36 -17 -42 -0 -50 -0 -25 -0 -3 -0 -0 -3 -8 -0 -0 -0 -33 -0 -0 -0 -0 -0 -0 -0 -0 -0 -0 -76
-4 -0 -0 -86 -103 -25 -20 -1 -0 -0 -6 -18 -0 -12 -35 -32 -40 -17 -2 -82 -0 -0 -0 -36 -10 -7 -0 -0 -0 -0 -0 -0 -0 -0 -9 -0 -0 -0 -0 -0 -0 -0 -0 -0 -0
-31 -34 -0 -73 -0 -0 -4 -43 -0 -0 -2 -0 -0 -16 -1 -0 -2 -5 -0 -9 -14 -80 -22 -33 -6 -0 -0 -0 -0 -0 -0 -0 -0 -0 -0 -0 -0 -0 -0 -0 -0 -0 -0 -0 -0
-0 -36 -3 -7 -1 -4 -0 -9 -0 -1 -18 -12 -1 -0 -0 -9 -17 -21 -10 -5 -3 -19 -21 -19 -15 -0 -0 -0 -0 -0 -0 -0 -0 -0 -0 -0 -0 -0 -0 -0 -0 -0 -0 -0 -0
Wind_Speed
nan nan nan nan nan nan nan nan nan nan nan nan nan nan nan nan nan nan nan nan nan nan nan nan nan nan nan nan nan nan nan nan nan nan 45 14 nan nan nan nan nan 28 24 23 29
nan nan nan nan nan nan nan nan nan nan nan nan nan nan nan nan nan nan nan nan nan nan nan nan nan nan nan nan nan nan nan nan 35 nan 10 34 nan nan nan nan 25 24 23 11 10
nan nan nan nan nan nan nan nan nan nan nan nan nan nan nan nan nan nan nan nan nan nan nan nan nan nan nan nan nan nan nan nan 40 nan nan nan nan nan nan nan nan 16 8 3 4
nan nan nan nan nan nan nan nan nan nan nan nan nan nan nan nan nan nan 14 10 nan nan nan nan nan nan nan nan nan nan nan nan nan 29 nan nan nan nan nan nan 9 10 6 4 6
nan nan nan nan nan nan nan nan nan nan nan nan nan nan nan nan nan nan 19 14 nan nan nan nan nan nan nan nan nan nan nan nan nan nan nan nan nan 52 nan nan nan 13 13 12 10
nan nan nan nan nan nan nan nan nan nan nan nan nan nan nan nan nan nan nan nan nan nan nan nan nan nan nan nan nan nan nan nan nan nan nan nan 15 15 10 10 11 12 13 12 13
nan nan nan nan nan nan nan nan nan nan nan nan nan nan nan nan nan nan nan nan nan nan nan nan nan nan nan nan nan nan nan nan nan nan nan nan 8 nan 10 11 9 9 9 13 nan
nan nan nan nan nan nan nan nan nan nan nan nan nan nan nan nan nan nan nan nan nan nan nan nan nan nan nan nan nan nan nan nan nan nan nan nan nan nan 5 12 13 13 nan nan nan
nan nan nan nan nan nan nan nan nan nan nan nan nan nan nan nan nan nan nan nan nan nan nan nan nan nan nan nan nan nan nan nan nan nan nan nan nan nan 5 10 15 16 16 nan nan
nan nan nan nan nan nan nan nan nan nan nan nan nan nan 6 nan nan nan nan nan nan nan nan nan nan nan nan nan nan nan nan nan nan nan nan nan nan nan 8 8 13 15 17 17 17
nan nan nan nan nan nan nan nan nan nan nan nan nan nan nan nan nan nan nan nan 8 19 nan nan nan nan nan nan nan nan nan nan nan nan nan nan nan nan 9 11 11 14 14 15 16
nan nan nan nan nan nan nan nan nan nan nan nan nan nan nan nan nan nan nan nan nan nan nan nan nan nan nan nan nan nan nan nan nan nan nan nan nan nan 13 14 16 15 16 16 15
nan nan nan nan nan nan nan nan nan nan 7 nan nan nan nan nan nan nan nan nan nan nan nan nan nan nan nan nan nan nan nan nan nan nan nan nan 10 15 11 7 7 12 16 18 20
nan nan nan nan nan nan nan nan nan nan 4 nan nan nan nan nan nan nan nan nan nan nan nan nan nan nan nan nan nan nan nan nan nan nan nan nan nan nan 20 21 17 14 14 19 21
nan nan nan nan nan nan nan nan nan 11 nan nan nan nan nan nan nan nan nan nan nan nan nan nan 3 nan nan 16 nan nan nan 4 nan nan nan 18 nan 32 26 29 24 24 21 24 29
nan nan nan nan nan nan nan 15 15 10 nan nan nan nan nan nan nan nan nan nan nan nan nan nan 21 16 24 15 nan 12 8 4 5 1 6 7 4 nan 27 21 31 28 28 31 30
nan nan nan nan nan nan nan 15 15 nan nan nan nan nan nan nan nan nan nan nan nan nan 7 18 8 21 16 19 12 7 4 1 7 7 5 24 13 nan nan nan 29 26 26 26 26
nan nan nan nan nan nan 22 15 nan nan nan nan nan nan nan nan nan nan nan nan nan nan 4 7 15 19 16 8 9 5 15 8 nan nan 4 26 nan 20 25 nan nan 19 19 19 17
nan nan nan nan nan nan 24 15 nan nan nan nan nan nan nan nan nan nan nan nan nan nan nan 14 nan nan nan nan nan 19 nan 22 15 18 nan nan nan 20 nan nan nan 17 19 18 19
nan nan nan nan nan nan 27 nan nan nan nan nan nan nan nan nan nan nan nan nan nan nan 19 17 15 nan nan nan nan nan nan nan nan nan nan nan nan nan nan nan nan 18 18 22 nan
nan nan nan nan nan nan nan nan nan nan nan nan nan nan nan nan nan nan nan nan nan 9 12 nan nan 21 nan nan nan 20 nan nan nan nan nan nan nan nan nan nan nan nan 23 27 nan
nan nan 58 56 nan nan nan nan nan nan nan nan nan nan nan nan nan nan nan nan nan nan nan nan nan nan nan nan nan nan nan nan nan nan nan nan nan nan nan nan nan nan 26 28 nan
nan 60 56 48 nan 42 nan nan nan nan nan nan nan nan nan nan nan nan nan nan nan nan nan 17 nan nan nan nan nan nan nan nan nan nan nan 17 nan nan nan nan nan nan nan nan nan
59 59 59 50 nan 36 nan nan nan nan nan nan nan nan nan nan nan nan nan nan nan nan nan nan nan nan nan nan nan nan nan nan nan nan nan nan nan nan nan nan nan nan nan nan nan
67 54 nan 47 nan 37 32 nan nan nan nan nan nan nan nan nan nan nan 13 nan nan nan nan nan nan nan nan nan nan nan nan nan nan nan nan nan nan nan nan nan nan nan nan nan nan
58 56 nan nan nan 39 36 nan nan nan 26 25 nan nan nan 15 11 14 16 18 nan nan nan nan nan nan nan nan nan nan nan nan nan nan nan nan nan nan nan nan nan nan nan nan nan
nan 65 58 55 40 44 36 nan nan nan 40 40 18 nan 18 28 30 31 27 21 19 15 12 17 nan nan nan nan nan nan nan nan nan nan nan nan nan nan nan nan nan nan nan nan nan
Wind_Direction
nan nan nan nan nan nan nan nan nan nan nan nan nan nan nan nan nan nan nan nan nan nan nan nan nan nan nan nan nan nan nan nan nan nan 250 163 nan nan nan nan nan 244 250 260 277
nan nan nan nan nan nan nan nan nan nan nan nan nan nan nan nan nan nan nan nan nan nan nan nan nan nan nan nan nan nan nan nan 239 nan 186 256 nan nan nan nan 273 290 263 270 343
nan nan nan nan nan nan nan nan nan nan nan nan nan nan nan nan nan nan nan nan nan nan nan nan nan nan nan nan nan nan nan nan 296 nan nan nan nan nan nan nan nan 256 252 304 2
nan nan nan nan nan nan nan nan nan nan nan nan nan nan nan nan nan nan 272 308 nan nan nan nan nan nan nan nan nan nan nan nan nan 272 nan nan nan nan nan nan 192 310 297 354 345
nan nan nan nan nan nan nan nan nan nan nan nan nan nan nan nan nan nan 293 271 nan nan nan nan nan nan nan nan nan nan nan nan nan nan nan nan nan 131 nan nan nan 278 329 337 349
nan nan nan nan nan nan nan nan nan nan nan nan nan nan nan nan nan nan nan nan nan nan nan nan nan nan nan nan nan nan nan nan nan nan nan nan 1 58 205 212 257 312 326 315 329
nan nan nan nan nan nan nan nan nan nan nan nan nan nan nan nan nan nan nan nan nan nan nan nan nan nan nan nan nan nan nan nan nan nan nan nan 93 nan 243 265 283 310 322 317 nan
nan nan nan nan nan nan nan nan nan nan nan nan nan nan nan nan nan nan nan nan nan nan nan nan nan nan nan nan nan nan nan nan nan nan nan nan nan nan 296 315 333 322 nan nan nan
nan nan nan nan nan nan nan nan nan nan nan nan nan nan nan nan nan nan nan nan nan nan nan nan nan nan nan nan nan nan nan nan nan nan nan nan nan nan 342 342 330 334 330 nan nan
nan nan nan nan nan nan nan nan nan nan nan nan nan nan 283 nan nan nan nan nan nan nan nan nan nan nan nan nan nan nan nan nan nan nan nan nan nan nan 342 3 337 333 324 322 317
nan nan nan nan nan nan nan nan nan nan nan nan nan nan nan nan nan nan nan nan 191 198 nan nan nan nan nan nan nan nan nan nan nan nan nan nan nan nan 338 360 338 331 322 314 311
nan nan nan nan nan nan nan nan nan nan nan nan nan nan nan nan nan nan nan nan nan nan nan nan nan nan nan nan nan nan nan nan nan nan nan nan nan nan 334 351 344 327 315 309 307
nan nan nan nan nan nan nan nan nan nan 309 nan nan nan nan nan nan nan nan nan nan nan nan nan nan nan nan nan nan nan nan nan nan nan nan nan 321 342 319 305 296 329 321 310 307
nan nan nan nan nan nan nan nan nan nan 262 nan nan nan nan nan nan nan nan nan nan nan nan nan nan nan nan nan nan nan nan nan nan nan nan nan nan nan 335 319 314 308 302 293 303
nan nan nan nan nan nan nan nan nan 269 nan nan nan nan nan nan nan nan nan nan nan nan nan nan 211 nan nan 232 nan nan nan 225 nan nan nan 1 nan 336 323 318 306 299 296 296 289
nan nan nan nan nan nan nan 239 278 263 nan nan nan nan nan nan nan nan nan nan nan nan nan nan 183 204 235 261 nan 268 268 320 325 109 232 119 256 nan 319 314 301 290 292 288 290
nan nan nan nan nan nan nan 254 264 nan nan nan nan nan nan nan nan nan nan nan nan nan 217 300 256 250 267 288 271 272 243 307 303 228 324 247 246 nan nan nan 278 301 301 298 296
nan nan nan nan nan nan 241 243 nan nan nan nan nan nan nan nan nan nan nan nan nan nan 178 268 286 281 268 174 191 295 178 237 nan nan 178 279 nan 263 260 nan nan 309 321 318 318
nan nan nan nan nan nan 236 268 nan nan nan nan nan nan nan nan nan nan nan nan nan nan nan 112 nan nan nan nan nan 275 nan 236 245 264 nan nan nan 290 nan nan nan 320 325 328 328
nan nan nan nan nan nan 230 nan nan nan nan nan nan nan nan nan nan nan nan nan nan nan 174 191 233 nan nan nan nan nan nan nan nan nan nan nan nan nan nan nan nan 314 322 321 nan
nan nan nan nan nan nan nan nan nan nan nan nan nan nan nan nan nan nan nan nan nan 221 187 nan nan 272 nan nan nan 273 nan nan nan nan nan nan nan nan nan nan nan nan 317 322 nan
nan nan 231 235 nan nan nan nan nan nan nan nan nan nan nan nan nan nan nan nan nan nan nan nan nan nan nan nan nan nan nan nan nan nan nan nan nan nan nan nan nan nan 312 318 nan
nan 221 218 223 nan 235 nan nan nan nan nan nan nan nan nan nan nan nan nan nan nan nan nan 254 nan nan nan nan nan nan nan nan nan nan nan 239 nan nan nan nan nan nan nan nan nan
218 222 216 224 nan 233 nan nan nan nan nan nan nan nan nan nan nan nan nan nan nan nan nan nan nan nan nan nan nan nan nan nan nan nan nan nan nan nan nan nan nan nan nan nan nan
209 221 nan 236 nan 225 225 nan nan nan nan nan nan nan nan nan nan nan 254 nan nan nan nan nan nan nan nan nan nan nan nan nan nan nan nan nan nan nan nan nan nan nan nan nan nan
208 216 nan nan nan 222 213 nan nan nan 204 190 nan nan nan 226 236 258 269 269 nan nan nan nan nan nan nan nan nan nan nan nan nan nan nan nan nan nan nan nan nan nan nan nan nan
nan 202 219 219 211 216 211 nan nan nan 196 181 175 nan 205 216 225 229 243 243 250 261 262 252 nan nan nan nan nan nan nan nan nan nan nan nan nan nan nan nan nan nan nan nan nan